星链-1464 (STARLINK-1464 )

导读

STARLINK-1464是美国SpaceX公司星链(Starlink)星座中的一颗卫星,于2020年6月13日发射升空。星链计划旨在构建全球卫星互联网,为全球偏远地区等提供高速宽带服务。该卫星作为星链组网的组成部分,运行于近地轨道,助力SpaceX实现全球覆盖的卫星通信网络布局,目前仍在轨参与星座运营。

Basic Information
目录编号:
45751
目录名称:
STARLINK-1464
国际标识:
2020-038X
轨道中心:
EARTH
卫星名称:
星链-1464
卫星全名:
星链-1464 (STARLINK-1464 )
卫星状态:
在轨 (已飞行2281 天)
发射日期:
2020-06-13 UTC
国别 :
美国 (US)
星等 :
--
This satellite is enrolled in the Space Conjunction Data Service (SCDS) and the current flight risk assessment level is: No High Risk
Orbit Information
数据来源 国际轨道数据
星历时间: 2026-09-11T08:00:04+0800
6小时前
查看轨道信息
半长轴: 6732.978km
偏心率: 0.0001442
轨道倾角: 53.043°
近地点辐角 83.219°
升交点赤经 30.125°
平近点角 296.111°
近地点: 353.87km
远地点: 355.812km
周期: 91.637分钟
每日圈数: 15.71419
Detailed Information
固有亮度:
5
最大亮度:
2.5
卫星平台:
Starlink V1.0
覆盖范围:
全球
运营商:
太空探索技术公司
运营商所在国:
美国
制造商(研发单位):
太空探索技术公司
制造商所在国:
美国
使用方式:
暂无
Satellite Introduction
星链(Starlink)计划是由太空探索技术公司(SpaceX)提出的一个巨型低轨卫星互联网星座项目,计划在2019年至2024年间在太空搭建由约1.2万颗卫星组成的“星链”网络,其中1584颗将部署在地球上空550千米处的近地轨道,并从2020年开始工作。该卫星仍在工作。
2D Orbit Map
3D Orbit Map
Orbit Altitude Analysis Chart
Orbit Inclination Analysis Chart
Orbit Comprehensive Analysis Chart
View Comprehensive Chart
Conjunction Data List
Event ID Objects TCA Miss Dist (km) Collision Risk Probability Collision Risk Index (CRI) Action
CDM_260912-080704-575106-283721
2026-09-12T
08:07:22+0000
0.371 km
远距离
3.040841E-4 高风险 0.85
CDM_260913-042004-575106-256221
2026-09-13T
04:20:36+0000
1.680 km
极远距离
2.792643E-6 低风险 0.44
CDM_260913-212604-575106-367421
2026-09-13T
21:26:40+0000
1.893 km
极远距离
2.754388E-6 低风险 0.44
CDM_260912-115604-575106-283721
2026-09-12T
11:56:15+0000
2.324 km
极远距离
1.603013E-6 低风险 0.39
CDM_260913-073704-575106-201021
2026-09-13T
07:37:16+0000
2.842 km
极远距离
1.290504E-6 低风险 0.37
CDM_260913-213204-575106-318921
2026-09-13T
21:32:25+0000
2.597 km
极远距离
1.262785E-6 低风险 0.37
Miss Distance Evolution Trend with All Objects
Collision Probability Evolution Trend with All Objects